LIPQLIBD

Guest
Details From LIPQ - Ronchi Dei Legionari
To LIBD - Bari Palese Macchie
Flight Number -
Tags generated
Created
Modified
Stats Distance 329 nm / 609 km
Max Altitude 35,000 ft / 10,668 m
Waypoints 6
Social Downloads 0
Likes 0
Share VATSIM

Download

Looking for another format? Having issues loading an existing format? Contact us
Advertisement - Login to hide

Notes

Basic altitude profile: - Ascent Rate: 2500ft/min - Ascent Speed: 250kts - Cruise Altitude: 27000ft - Cruise Speed: 330kts - Descent Rate: 1500ft/min - Descent Speed: 240kts Options: - Use NATs: no - Use PACOTS: no - Use low airways: no - Use high airways: yes

Route

LIPQ DOLOM UL607 ZDA UZ407 TIBLA UM725 XOLTA LIBD

ID Type Via Altitude Latitude Longitude Leg Dist Tot Dist Heading (true) Name
O LIPQ APT - 0 ft / 0 m 45.82786˚ 13.46666˚ - 0 nm - Ronchi Dei Legionari
DOLOM FIX - 31,000 ft / 9,449 m 44.70722˚ 14.87611˚ 89 nm 89 nm 138° / 139° -
ZDA VOR UL607 (AWY-HI) 35,000 ft / 10,668 m 44.09532˚ 15.36421˚ 42 nm 132 nm 150° / 150° ZADAR VOR-DME
TIBLA FIX UZ407 (AWY-HI) 27,500 ft / 8,382 m 43.07472˚ 16.00667˚ 67 nm 199 nm 155° / 156° -
XOLTA FIX UM725 (AWY-HI) 28,500 ft / 8,687 m 42.70389˚ 15.74833˚ 25 nm 224 nm 207° / 207° -
O LIBD APT - 0 ft / 0 m 41.13787˚ 16.75832˚ 104 nm 328 nm 154° / 155° Bari Palese Macchie

Altitude Profile

Advertisement - Login to hide

Weather


0- 5 10 15 20 25 30 35+ Temperature / ° C

Clouds and Precipitation
Forecast for 2017-12-15 18:00 UTC. Updated an hour ago

Ground ~20,000 ft ~40,000 ft Winds

LIPQ

Details ICAO LIPQ (TRS)
Name Ronchi Dei Legionari
Region Italy
Timezone Europe/Rome (UTC+1.0)
Stats Elevation 37 ft / 11 m (AMSL)
Location 45.827857° 13.466663°
Runways 1
Magnetic Variation 3.432° E

METAR

LIPQ 151550Z 04004KT 9999 SCT025 BKN060 10/09 Q0996

Decode

TAF

TAF LIPQ 151100Z 1512/1612 VRB06KT 8000 BKN030 TEMPO 1520/1606 4000 SHRA

Decode

Departure Runways

ID Width Length Bearing (true) Bearing (mag) Surface Threshold Offset Overrun Length
09 148 ft / 45 m 9,819 ft / 2,993 m 90.42° 86.99° Asphalt 823 ft / 251 m 0 ft / 0 m
27 148 ft / 45 m 9,819 ft / 2,993 m 270.44° 267.01° Asphalt 10 ft / 3 m 190 ft / 58 m

LIBD

Details ICAO LIBD (BRI)
Name Bari Palese Macchie
Region Italy
Timezone Europe/Rome (UTC+1.0)
Stats Elevation 177 ft / 54 m (AMSL)
Location 41.137865° 16.758318°
Runways 1
Magnetic Variation 3.737° E

METAR

LIBD 151550Z 19004KT 150V240 CAVOK 15/07 Q1004

Decode

TAF

TAF LIBD 151100Z 1512/1612 22014KT 9999 SCT030 TEMPO 1522/1606 RA= TAF LIBP 151100Z 1512/1612 22016KT 9999 SCT030 BECMG 1516/1518 34008KT TEMPO 1515/1603 4000 SHRA

Decode

Destination Runways

ID Width Length Bearing (true) Bearing (mag) Surface Threshold Offset Overrun Length
07 148 ft / 45 m 9,262 ft / 2,823 m 69.39° 65.65° Asphalt 1,257 ft / 383 m 0 ft / 0 m
25 148 ft / 45 m 9,262 ft / 2,823 m 249.42° 245.68° Asphalt 0 ft / 0 m 194 ft / 59 m

Approach Navaids

Runway Type Ident Frequency Range Bearing (true) Bearing (mag) Slope Elevation
07 Localiser BAP 111.35 MHz 18 nm / 33 km 69.25° 65.51° - 177 ft / 54 m (AMSL)
07 Glidescope BAP 111.35 MHz 10 nm / 19 km 69.25° 65.51° 3.32° 177 ft / 54 m (AMSL)
07 DME BAP 111.35 MHz 18 nm / 33 km - - - 183 ft / 56 m (AMSL)

Popular Alternatives